www.pogodaiklimat.ru

Погода и климат >> Архив погоды >> Россия >> Приморский край >> Рудная Пристань


ПОГОДА в Рудной Пристани

  • Прогноз погоды в Рудной Пристани
  • Монитор погоды в Рудной Пристани
  • Климат города

АРХИВ ПОГОДЫ в Рудной Пристани

Время (UTC), дата Ветер
(напр.,м/с)
 
Видим.   Явления Облачность Т
(С)
Тd
(С)
f
(%)
Тe
(С)
Тes
(С)
Комфортность P
(гПа)
Po
(гПа)
Тmin
(С)
Tmax
(С)
R
(мм)
R24
(мм)
S
(см)
00 17.05 В 5
{10}
50 км {ливн. осадки} 8/3 300 м
[St Ci]
+10.9 +5.6 70 +8 +12 1008.5 1004.4
03 17.05 ЮВ 2
{10}
50 км 3/1 600 м
[Sc Ci fib]
+11.3 +5.2 66 +10 +26 опасность
простуды
1011.0 1006.9
06 17.05 В 2 50 км 8/3 600 м
[Sc Ci]
+11.7 +4.6 62 +11 +18 1010.7 1006.6
09 17.05 ЮВ 1 50 км 10/8 600 м
[Cb cap As trans]
+10.7 +3.4 61 +11 +11 1012.2 1008.1 +12.2
12 17.05 СВ 1 50 км 10/6 600 м
[Cb cap Ac trans Ci sp]
+9.7 +2.1 59 +10 +10 1015.1 1010.9
15 17.05 СВ 1 50 км 10/8 600 м
[Cb cap As trans]
+9.9 +1.8 57 +10 +10 1015.1 1011.0
18 17.05 СЗ 2 50 км 10/8 600 м
[Cb cap As op]
+9.9 +1.4 55 +9 +9 1013.5 1009.3
21 17.05 СЗ 4 50 км 10/8 600 м
[Cb cap As op]
+10.9 +1.1 51 +9 +9 1013.6 1009.5 +9.3
00 18.05 ЮВ 1 50 км 10/8 600 м
[Sc As trans]
+10.8 +3.0 59 +11 +12 1013.5 1009.4
03 18.05 В 2 50 км 10/8 600 м
[Sc As trans]
+8.7 +2.9 67 +7 +9 1013.9 1009.7
06 18.05 В 2 20 км 10/8 600 м
[Sc As trans]
+11.9 -1.0 41 +11 +12 1012.2 1008.1
09 18.05 В 4
{11}
20 км 9/8 600 м
[Cb cap Ac trans Ci sp]
+11.1 -3.9 35 +9 +9 1012.3 1008.2 +12.5
12 18.05 СЗ 3
{10}
20 км 8/4 600 м
[Sc diur, vesp Ac trans Ci sp]
+10.4 -5.7 32 +9 +9 1013.0 1008.8
15 18.05 З 3 20 км 3/0
[Ac trans]
+10.2 -6.7 30 +9 +9 1012.3 1008.1
18 18.05 З 2 20 км 8/0
[Ac trans Ci fib]
+8.9 -5.8 35 +8 +8 1012.4 1008.3
21 18.05 В 1 50 км 3/0
[Ac lent]
+8.4 -2.6 46 +8 +10 1013.8 1009.7 +6.6
00 19.05 ЮВ 2 50 км 3/0
[Ac trans]
+11.9 -1.1 40 +11 +21 опасность
простуды
1014.9 1010.8
03 19.05 ЮВ 2 20 км 1/1 600 м
[Cu hum]
+13.3 -2.3 34 +13 +30 опасность
простуды
1016.5 1012.4
06 19.05 В 2 20 км 3/3 600 м
[Sc]
+13.7 -0.1 39 +13 +21 1018.1 1014.0
09 19.05 В 1 20 км 3/3 600 м
[Sc diur, vesp]
+13.3 +1.8 46 +14 +15 1018.3 1014.2 +14.4
12 19.05 З 1 20 км ясно +13.0 +0.2 41 +14 +14 1019.0 1014.9
15 19.05 З 3 20 км ясно +7.9 +2.5 69 +5 +5 1019.0 1014.8
18 19.05 СЗ 4 20 км ясно +11.9 +2.1 51 +10 +10 1018.4 1014.3
21 19.05 З 5 20 км ясно +13.8 +4.3 53 +12 +13 1019.2 1015.1 +5.8
00 20.05 ЮВ 3 50 км ясно +10.7 +3.9 63 +9 +19 опасность
простуды
1021.4 1017.2
03 20.05 ЮВ 3 50 км 3/1 1000 м
[Cu hum Ci sp]
+11.0 +3.5 60 +9 +23 опасность
простуды
1021.3 1017.1
06 20.05 В 3 50 км 3/3 1000 м
[Cu hum]
+11.6 +3.5 58 +10 +17 1020.1 1015.9
09 20.05 В 2 20 км 3/3 600 м
[Sc diur, vesp Ac cuf]
+9.4 +3.7 68 +8 +9 1020.0 1015.8 +14.7
12 20.05 СВ 1 20 км 3/1 600 м
[Sc Ci sp]
+6.8 +4.0 82 +6 +6 1019.9 1015.7
15 20.05 В 1 20 км ясно +5.9 +3.7 86 +5 +5 1018.4 1014.2
18 20.05 З 1 20 км ясно +6.1 +3.7 85 +5 +5 1018.0 1013.8
21 20.05 СЗ 3 20 км 3/0
[Ac lent]
+15.3 +4.4 48 +15 +16 1017.5 1013.4 +5.1
00 21.05 ЮВ 1 50 км 3/0
[Ac lent Ci fib]
+24.0 +3.2 26 +23 +34 комфорт 1016.5 1012.5
03 21.05 В 4 20 км 6/3 1000 м
[Cu hum Ci sp]
+21.9 +3.8 31 +22 +30 комфорт 1014.4 1010.5
06 21.05 З 3 20 км 8/1 1000 м
[Cu hum Ac lent Ci]
+30.6 -2.4 12 +27 +33 жарко 1012.5 1008.6
09 21.05 В 1
{10}
20 км 10/4 600 м
[Cb cap Ac lent Ci]
+26.4 +1.1 19 +25 +25 комфорт 1012.6 1008.7 +30.7
12 21.05 В 3
{13}
20 км 10/8 600 м
[Cb cap Ci sp]
+15.0 +4.3 49 +14 +14 1015.9 1011.8
15 21.05 В 1 20 км 9/6 600 м
[Sc diur, vesp Ac trans]
+11.9 +5.8 66 +12 +12 1017.1 1013.0
18 21.05 З 1 20 км ясно +9.2 +5.1 76 +9 +9 1017.0 1012.8
21 21.05 штиль 0 20 км 1/0
[Ac lent]
+9.0 +6.0 81 +8 +10 1017.5 1013.3 +7.8
00 22.05 ЮВ 2 20 км ясно +11.5 +5.3 66 +11 +22 опасность
простуды
1016.8 1012.7
03 22.05 В 3 20 км ясно +11.8 +5.9 67 +10 +26 опасность
простуды
1015.5 1011.4
06 22.05 В 3 20 км ясно +11.0 +6.4 73 +9 +19 опасность
простуды
1012.1 1008.0
09 22.05 В 2 20 км 3/0
[Ci fib]
+10.9 +5.2 68 +10 +11 1010.1 1006.0 +12.5
12 22.05 СВ 1 20 км 3/0
[Ac lent]
+8.0 +4.3 77 +7 +7 1010.2 1006.1
15 22.05 З 1 20 км 8/0
[Ac lent Ci sp]
+6.0 +3.7 85 +5 +5 1009.3 1005.1
18 22.05 СВ 1 20 км 3/0
[Ac lent]
+5.9 +4.3 89 +5 +5 1007.4 1003.3
21 22.05 штиль 0 20 км 10/8 600 м
[Cb cap As op]
+6.5 +5.3 92 +5 +6 1005.4 1001.3 +5.6
00 23.05 Ю 1 10 км слабый ливневой дождь 10/8 600 м
[Cb cap As op]
+8.6 +6.1 84 +8 +9 1003.3 999.2
03 23.05 В 2 4000 м ливневой дождь 10/8 300 м
[Cb cap As op]
+7.6 +7.1 97 +5 +6 1001.3 997.2
06 23.05 ЮВ 1 20 км в посл. час ливневой дождь 10/8 600 м
[Cb cap Ac trans Ci sp]
+8.2 +7.9 98 +7 +9 999.2 995.1
09 23.05 З 4 50 км {ливн. осадки} 1/1 600 м
[Cu hum]
+12.8 +0.5 43 +11 +12 1000.8 996.7 +13.3 11
12 23.05 З 2 50 км {ливн. осадки} ясно +8.4 +2.2 65 +7 +7 1002.4 998.3
15 23.05 СЗ 3 50 км ясно +7.5 +2.7 72 +5 +5 1003.6 999.5
18 23.05 З 1 4000 м дымка ясно +2.7 +2.0 95 +1 +1 1003.5 999.3
21 23.05 З 2 20 км 10/8 600 м
[Cb cap As op]
+4.1 +3.1 93 +1 +1 1002.8 998.6 +2.3

 

Местоположение метеостанции Рудная Пристань (Приморский край, Россия): широта 44.37 долгота 135.80 высота над уровнем моря 34 м.

В архиве по умолчанию представлена погода в Рудной Пристани за последнюю неделю. Архивные данные за месяц целиком и за предыдущие месяцы, начиная с января 2011 года, Вы можете получить, выбрав интересующий диапазон дат из раскрывающегося списка и нажав кнопку "Ввод!".


*Определитесь, кто Вы:
робот инопланетянин человек

Внимание! Время в таблицах - всемирное. Для получения местного времени необходимо прибавить поправку, которая в Рудной Пристани равна 10 ч.

Смотрите также архив погоды в соседних городах и на ближайших метеорологических станциях:

Погода в Богополе (Приморский край, Россия) (35 км)
Погода в Кавалерово (Приморский край, Россия) (65 км)
Погода в Ольге (Приморский край, Россия) (80 км)
Погода в Дальнегорске (Приморский край, Россия) (93 км)
Погода в Тернее (Приморский край, Россия) (94 км)
Погода в Мельничном (Приморский край, Россия) (122 км)
Погода в Лучегорске (Приморский край, Россия) (151 км)
Погода в Малой Кеме (Приморский край, Россия) (154 км)
Погода в Чугуевке (Приморский край, Россия) (161 км)
Погода в Малиново (Приморский край, Россия) (172 км)

Пояснения к столбцам:

Ветер - указаны скорость ветра в м/с - средняя за 10 мин, порывы в срок и между сроками (в фигурных скобках) и направление, откуда дует ветер: С - северный, СВ - северо-восточный, В - восточный, ЮВ - юго-восточный, Ю - южный, ЮЗ - юго-западный, З - западный, СЗ - северо-западный.
Видимость - горизонтальная дальность видимости в метрах или километрах. При видимости от 1 до 10 км при отсутствии осадков обычно наблюдается дымка, при ухудшении видимости до 1 км и менее - туман. В сухую погоду видимость может ухудшаться дымом, пылью или мглою.
Явления - указаны атмосферные явления, наблюдавшиеся в срок или в последний час перед сроком; фигурными скобками обозначены явления, наблюдавшиеся между сроками (за 1-3 часа до срока); квадратными скобками обозначены град или гололедные отложения с указанием их диаметра в мм.
Облачность - указаны через наклонную черту общая и нижняя облачность в баллах и высота нижней границы облаков в метрах; квадратными скобками обозначены формы облаков: Ci - перистые, Cs - перисто-слоистые, Cc - перисто-кучевые, Ac - высококучевые, As - высокослоистые, Sc - слоисто-кучевые, Ns - слоисто-дождевые, Cu - кучевые, Cb - кучево-дождевые. Подробнее классификацию облаков см. в Атласе облаков (PDF).
T - Температура воздуха - температура, измеренная на высоте 2 м над землей.
Td - Температура точки росы - температура, при понижении до которой содержащийся в воздухе водяной пар достигнет насыщения.
f - Относительная влажность воздуха - влажноcть воздуха, измеренная на высоте 2 м над землей.
Te - Эффективная температура - температура, которую ощущает одетый по сезону человек в тени. Характеристика душности погоды. При расчете учитывается влияние влажности воздуха и скорости ветра на теплоощущения человека.
Tes - Эффективная температура на солнце - температура, которую ощущает человек, с поправкой на солнечный нагрев. Характеристика знойности погоды. Зависит от высоты солнца над горизонтом, облачности и скорости ветра. Ночью, в пасмурную погоду, а также при ветре 12 м/с и более поправка равна нулю.
P - Атмосферное давление - приведенное к уровню моря атмосферное давление.
Po - Атмосферное давление - измеренное на уровне метеостанции атмосферное давление.
Tmin - Минимальная температура - минимум температуры воздуха на высоте 2 м над землей.
Tmax - Максимальная температура - максимум температуры воздуха на высоте 2 м над землей.
R - Количество осадков - Количество выпавших осадков за период времени, мм. При наведении курсора мыши на число - период времени, за который выпало указанное количество осадков.
R24 - Количество осадков - Количество выпавших осадков за 24 часа, мм.
S - Снежный покров - Высота снежного покрова, см. При наведении курсора мыши на число - состояние снежного покрова и степень покрытия местности в баллах.